| time (UTC) | temp F | wind direction | speed MPH | gust MPH | rain 1hr in | rain 24hr in | rain mn in | humidity % | barometer mb |
| 20260902122349 | 84 | 0 | 0.0 | 0.0 | 0.00 | 0.00 | 0.00 | 49 | 1002.0 |
| 20260902121327 | 84 | 0 | 0.0 | 0.0 | 0.00 | 0.00 | 0.00 | 48 | 1002.0 |
| 20260902120304 | 84 | 0 | 0.0 | 0.0 | 0.00 | 0.00 | 0.00 | 47 | 1001.0 |
| 20260902115241 | 83 | 0 | 0.0 | 0.0 | 0.00 | 0.00 | 0.00 | 47 | 1001.0 |
| 20260902114219 | 83 | 0 | 0.0 | 0.0 | 0.00 | 0.00 | 0.00 | 46 | 1001.0 |
| 20260902113156 | 82 | 0 | 0.0 | 0.0 | 0.00 | 0.00 | 0.00 | 45 | 1001.0 |
| 20260902112133 | 80 | 0 | 0.0 | 0.0 | 0.00 | 0.00 | 0.00 | 46 | 1001.0 |
| 20260902111111 | 80 | 0 | 0.0 | 0.0 | 0.00 | 0.00 | 0.00 | 52 | 1001.0 |
| 20260902110048 | 80 | 0 | 0.0 | 0.0 | 0.00 | 0.00 | 0.00 | 53 | 1001.0 |
| 20260902105025 | 79 | 0 | 0.0 | 0.0 | 0.00 | 0.00 | 0.00 | 48 | 1001.0 |
| 20260902104003 | 80 | 0 | 0.0 | 0.0 | 0.00 | 0.00 | 0.00 | 57 | 1001.0 |
| 20260902102940 | 79 | 0 | 0.0 | 0.0 | 0.00 | 0.00 | 0.00 | 46 | 1001.0 |
| 20260902101917 | 80 | 0 | 0.0 | 0.0 | 0.00 | 0.00 | 0.00 | 51 | 1000.0 |
| 20260902100855 | 80 | 0 | 0.0 | 0.0 | 0.00 | 0.00 | 0.00 | 50 | 1000.0 |
| 20260902095832 | 79 | 0 | 0.0 | 0.0 | 0.00 | 0.00 | 0.00 | 44 | 1000.0 |
| 20260902094809 | 80 | 0 | 0.0 | 0.0 | 0.00 | 0.00 | 0.00 | 50 | 1000.0 |
| 20260902093747 | 80 | 0 | 0.0 | 0.0 | 0.00 | 0.00 | 0.00 | 44 | 1000.0 |
| 20260902092724 | 80 | 0 | 0.0 | 0.0 | 0.00 | 0.00 | 0.00 | 39 | 1000.0 |
| 20260902091701 | 80 | 0 | 0.0 | 0.0 | 0.00 | 0.00 | 0.00 | 39 | 1001.0 |
| 20260902090639 | 80 | 0 | 0.0 | 0.0 | 0.00 | 0.00 | 0.00 | 37 | 1000.0 |
| 20260902085616 | 80 | 0 | 0.0 | 0.0 | 0.00 | 0.00 | 0.00 | 38 | 1000.0 |
| 20260902084553 | 81 | 0 | 0.0 | 0.0 | 0.00 | 0.00 | 0.00 | 37 | 1001.0 |
| 20260902083531 | 81 | 0 | 0.0 | 0.0 | 0.00 | 0.00 | 0.00 | 38 | 1001.0 |
| 20260902082508 | 80 | 0 | 0.0 | 0.0 | 0.00 | 0.00 | 0.00 | 39 | 1001.0 |
| 20260902081446 | 81 | 0 | 0.0 | 0.0 | 0.00 | 0.00 | 0.00 | 38 | 1001.0 |
| 20260902080423 | 81 | 0 | 0.0 | 0.0 | 0.00 | 0.00 | 0.00 | 39 | 1001.0 |
| 20260902075401 | 81 | 0 | 0.0 | 0.0 | 0.00 | 0.00 | 0.00 | 39 | 1001.0 |
| 20260902074338 | 80 | 0 | 0.0 | 0.0 | 0.00 | 0.00 | 0.00 | 40 | 1001.0 |
| 20260902073315 | 80 | 0 | 0.0 | 0.0 | 0.00 | 0.00 | 0.00 | 41 | 1002.0 |
| 20260902072252 | 80 | 0 | 0.0 | 0.0 | 0.00 | 0.00 | 0.00 | 41 | 1002.0 |
| 20260902071230 | 81 | 0 | 0.0 | 0.0 | 0.00 | 0.00 | 0.00 | 44 | 1002.0 |
| 20260902070207 | 81 | 0 | 0.0 | 0.0 | 0.00 | 0.00 | 0.00 | 45 | 1002.0 |
| 20260902065144 | 81 | 0 | 0.0 | 0.0 | 0.00 | 0.00 | 0.00 | 48 | 1002.0 |
| 20260902064122 | 83 | 0 | 0.0 | 0.0 | 0.00 | 0.00 | 0.00 | 53 | 1003.0 |
| 20260902063059 | 83 | 0 | 0.0 | 0.0 | 0.00 | 0.00 | 0.00 | 54 | 1003.0 |
| 20260902062036 | 82 | 0 | 0.0 | 0.0 | 0.00 | 0.00 | 0.00 | 49 | 1003.0 |
| 20260902061014 | 80 | 0 | 0.0 | 0.0 | 0.00 | 0.00 | 0.00 | 39 | 1003.0 |
| 20260902055951 | 81 | 0 | 0.0 | 0.0 | 0.00 | 0.00 | 0.00 | 39 | 1004.0 |
| 20260902054928 | 81 | 0 | 0.0 | 0.0 | 0.00 | 0.00 | 0.00 | 41 | 1004.0 |
| 20260902053906 | 81 | 0 | 0.0 | 0.0 | 0.00 | 0.00 | 0.00 | 45 | 1004.0 |
| 20260902052843 | 81 | 0 | 0.0 | 0.0 | 0.00 | 0.00 | 0.00 | 46 | 1004.0 |
| 20260902051820 | 80 | 0 | 0.0 | 0.0 | 0.00 | 0.00 | 0.00 | 38 | 1004.0 |
| 20260902050758 | 80 | 0 | 0.0 | 0.0 | 0.00 | 0.00 | 0.00 | 39 | 1004.0 |
| 20260902045735 | 81 | 0 | 0.0 | 0.0 | 0.00 | 0.00 | 0.00 | 41 | 1004.0 |
| 20260902044712 | 81 | 0 | 0.0 | 0.0 | 0.00 | 0.00 | 0.00 | 46 | 1005.0 |
| 20260902043650 | 81 | 0 | 0.0 | 0.0 | 0.00 | 0.00 | 0.00 | 49 | 1005.0 |
| 20260902042627 | 80 | 0 | 0.0 | 0.0 | 0.00 | 0.00 | 0.00 | 40 | 1005.0 |
| 20260902041604 | 80 | 0 | 0.0 | 0.0 | 0.00 | 0.00 | 0.00 | 39 | 1005.0 |
| 20260902040542 | 80 | 0 | 0.0 | 0.0 | 0.00 | 0.00 | 0.00 | 40 | 1005.0 |
| 20260902035519 | 80 | 0 | 0.0 | 0.0 | 0.00 | 0.00 | 0.00 | 42 | 1005.0 |
| 20260902034456 | 81 | 0 | 0.0 | 0.0 | 0.00 | 0.00 | 0.00 | 47 | 1005.0 |
| 20260902033434 | 80 | 0 | 0.0 | 0.0 | 0.00 | 0.00 | 0.00 | 45 | 1005.0 |
| 20260902032411 | 80 | 0 | 0.0 | 0.0 | 0.00 | 0.00 | 0.00 | 39 | 1005.0 |
| 20260902031348 | 79 | 0 | 0.0 | 0.0 | 0.00 | 0.00 | 0.00 | 42 | 1005.0 |
| 20260902030326 | 79 | 0 | 0.0 | 0.0 | 0.00 | 0.00 | 0.00 | 42 | 1005.0 |
| 20260902025306 | 80 | 0 | 0.0 | 0.0 | 0.00 | 0.00 | 0.00 | 44 | 1005.0 |
| 20260902024240 | 80 | 0 | 0.0 | 0.0 | 0.00 | 0.00 | 0.00 | 50 | 1005.0 |
| 20260902023218 | 80 | 0 | 0.0 | 0.0 | 0.00 | 0.00 | 0.00 | 42 | 1005.0 |
| 20260902022155 | 79 | 0 | 0.0 | 0.0 | 0.00 | 0.00 | 0.00 | 40 | 1005.0 |
| 20260902021133 | 79 | 0 | 0.0 | 0.0 | 0.00 | 0.00 | 0.00 | 41 | 1005.0 |
| 20260902020110 | 80 | 0 | 0.0 | 0.0 | 0.00 | 0.00 | 0.00 | 43 | 1005.0 |
| 20260902015047 | 80 | 0 | 0.0 | 0.0 | 0.00 | 0.00 | 0.00 | 48 | 1005.0 |
| 20260902014024 | 80 | 0 | 0.0 | 0.0 | 0.00 | 0.00 | 0.00 | 50 | 1005.0 |
| 20260902013002 | 79 | 0 | 0.0 | 0.0 | 0.00 | 0.00 | 0.00 | 41 | 1005.0 |
| 20260902011940 | 79 | 0 | 0.0 | 0.0 | 0.00 | 0.00 | 0.00 | 42 | 1005.0 |
| 20260902010916 | 79 | 0 | 0.0 | 0.0 | 0.00 | 0.00 | 0.00 | 44 | 1005.0 |
| 20260902005854 | 80 | 0 | 0.0 | 0.0 | 0.00 | 0.00 | 0.00 | 48 | 1005.0 |
| 20260902004831 | 80 | 0 | 0.0 | 0.0 | 0.00 | 0.00 | 0.00 | 52 | 1005.0 |
| 20260902003808 | 81 | 0 | 0.0 | 0.0 | 0.00 | 0.00 | 0.00 | 56 | 1004.0 |
| 20260902002746 | 85 | 0 | 0.0 | 0.0 | 0.00 | 0.00 | 0.00 | 73 | 1004.0 |
| 20260902001723 | 84 | 0 | 0.0 | 0.0 | 0.00 | 0.00 | 0.00 | 71 | 1004.0 |
| 20260902000702 | 84 | 0 | 0.0 | 0.0 | 0.00 | 0.00 | 0.00 | 71 | 1004.0 |
| 20260901235638 | 84 | 0 | 0.0 | 0.0 | 0.00 | 0.00 | 0.00 | 71 | 1004.0 |
| 20260901234615 | 84 | 0 | 0.0 | 0.0 | 0.00 | 0.00 | 0.00 | 73 | 1004.0 |
| 20260901233553 | 84 | 0 | 0.0 | 0.0 | 0.00 | 0.00 | 0.00 | 75 | 1004.0 |
| 20260901232530 | 84 | 0 | 0.0 | 0.0 | 0.00 | 0.00 | 0.00 | 78 | 1004.0 |
| 20260901231507 | 84 | 0 | 0.0 | 0.0 | 0.00 | 0.00 | 0.00 | 78 | 1004.0 |
| 20260901230444 | 84 | 0 | 0.0 | 0.0 | 0.00 | 0.00 | 0.00 | 78 | 1004.0 |
| 20260901225422 | 84 | 0 | 0.0 | 0.0 | 0.00 | 0.00 | 0.00 | 78 | 1004.0 |
| 20260901224359 | 84 | 0 | 0.0 | 0.0 | 0.00 | 0.00 | 0.00 | 78 | 1004.0 |
| 20260901223337 | 84 | 0 | 0.0 | 0.0 | 0.00 | 0.00 | 0.00 | 78 | 1003.0 |
| 20260901222314 | 84 | 0 | 0.0 | 0.0 | 0.00 | 0.00 | 0.00 | 78 | 1003.0 |
| 20260901221251 | 84 | 0 | 0.0 | 0.0 | 0.00 | 0.00 | 0.00 | 77 | 1003.0 |
| 20260901220228 | 84 | 0 | 0.0 | 0.0 | 0.00 | 0.00 | 0.00 | 77 | 1003.0 |
| 20260901215206 | 84 | 0 | 0.0 | 0.0 | 0.00 | 0.00 | 0.00 | 77 | 1003.0 |
| 20260901214143 | 84 | 0 | 0.0 | 0.0 | 0.00 | 0.00 | 0.00 | 77 | 1003.0 |
| 20260901213121 | 84 | 0 | 0.0 | 0.0 | 0.00 | 0.00 | 0.00 | 77 | 1003.0 |
| 20260901212058 | 84 | 0 | 0.0 | 0.0 | 0.00 | 0.00 | 0.00 | 76 | 1003.0 |
| 20260901211035 | 84 | 0 | 0.0 | 0.0 | 0.00 | 0.00 | 0.00 | 76 | 1003.0 |
| 20260901210013 | 84 | 0 | 0.0 | 0.0 | 0.00 | 0.00 | 0.00 | 76 | 1003.0 |
| 20260901204950 | 84 | 0 | 0.0 | 0.0 | 0.00 | 0.00 | 0.00 | 76 | 1003.0 |
| 20260901203927 | 84 | 0 | 0.0 | 0.0 | 0.00 | 0.00 | 0.00 | 75 | 1003.0 |
| 20260901202905 | 84 | 0 | 0.0 | 0.0 | 0.00 | 0.00 | 0.00 | 76 | 1003.0 |
| 20260901201842 | 84 | 0 | 0.0 | 0.0 | 0.00 | 0.00 | 0.00 | 75 | 1003.0 |
| 20260901200819 | 84 | 0 | 0.0 | 0.0 | 0.00 | 0.00 | 0.00 | 75 | 1003.0 |
| 20260901195757 | 84 | 0 | 0.0 | 0.0 | 0.00 | 0.00 | 0.00 | 75 | 1004.0 |
| 20260901194734 | 84 | 0 | 0.0 | 0.0 | 0.00 | 0.00 | 0.00 | 75 | 1004.0 |
| 20260901193711 | 84 | 0 | 0.0 | 0.0 | 0.00 | 0.00 | 0.00 | 74 | 1004.0 |
| 20260901192649 | 84 | 0 | 0.0 | 0.0 | 0.00 | 0.00 | 0.00 | 75 | 1004.0 |
| 20260901191626 | 84 | 0 | 0.0 | 0.0 | 0.00 | 0.00 | 0.00 | 74 | 1004.0 |
| 20260901190603 | 84 | 0 | 0.0 | 0.0 | 0.00 | 0.00 | 0.00 | 74 | 1004.0 |
| 20260901185541 | 84 | 0 | 0.0 | 0.0 | 0.00 | 0.00 | 0.00 | 74 | 1004.0 |
| 20260901184519 | 84 | 0 | 0.0 | 0.0 | 0.00 | 0.00 | 0.00 | 74 | 1004.0 |
| 20260901183456 | 84 | 0 | 0.0 | 0.0 | 0.00 | 0.00 | 0.00 | 75 | 1004.0 |
| 20260901182433 | 84 | 0 | 0.0 | 0.0 | 0.00 | 0.00 | 0.00 | 74 | 1005.0 |
| 20260901181411 | 84 | 0 | 0.0 | 0.0 | 0.00 | 0.00 | 0.00 | 74 | 1005.0 |
| 20260901180347 | 84 | 0 | 0.0 | 0.0 | 0.00 | 0.00 | 0.00 | 73 | 1005.0 |
| 20260901175325 | 84 | 0 | 0.0 | 0.0 | 0.00 | 0.00 | 0.00 | 74 | 1005.0 |
| 20260901174302 | 84 | 0 | 0.0 | 0.0 | 0.00 | 0.00 | 0.00 | 74 | 1005.0 |
| 20260901173240 | 84 | 0 | 0.0 | 0.0 | 0.00 | 0.00 | 0.00 | 75 | 1005.0 |
| 20260901172217 | 84 | 0 | 0.0 | 0.0 | 0.00 | 0.00 | 0.00 | 76 | 1005.0 |
| 20260901171154 | 84 | 0 | 0.0 | 0.0 | 0.00 | 0.00 | 0.00 | 73 | 1005.0 |
| 20260901170132 | 84 | 0 | 0.0 | 0.0 | 0.00 | 0.00 | 0.00 | 71 | 1006.0 |
| 20260901165109 | 84 | 0 | 0.0 | 0.0 | 0.00 | 0.00 | 0.00 | 71 | 1006.0 |
| 20260901164046 | 84 | 0 | 0.0 | 0.0 | 0.00 | 0.00 | 0.00 | 71 | 1006.0 |
| 20260901163024 | 84 | 0 | 0.0 | 0.0 | 0.00 | 0.00 | 0.00 | 71 | 1006.0 |
| 20260901162001 | 84 | 0 | 0.0 | 0.0 | 0.00 | 0.00 | 0.00 | 70 | 1006.0 |
| 20260901160938 | 84 | 0 | 0.0 | 0.0 | 0.00 | 0.00 | 0.00 | 70 | 1006.0 |
| 20260901155916 | 84 | 0 | 0.0 | 0.0 | 0.00 | 0.00 | 0.00 | 70 | 1006.0 |
| 20260901154853 | 84 | 0 | 0.0 | 0.0 | 0.00 | 0.00 | 0.00 | 69 | 1006.0 |
| 20260901153830 | 84 | 0 | 0.0 | 0.0 | 0.00 | 0.00 | 0.00 | 69 | 1006.0 |
| 20260901152808 | 84 | 0 | 0.0 | 0.0 | 0.00 | 0.00 | 0.00 | 68 | 1006.0 |
| 20260901151745 | 84 | 0 | 0.0 | 0.0 | 0.00 | 0.00 | 0.00 | 68 | 1006.0 |
| 20260901150722 | 84 | 0 | 0.0 | 0.0 | 0.00 | 0.00 | 0.00 | 67 | 1006.0 |
| 20260901145700 | 84 | 0 | 0.0 | 0.0 | 0.00 | 0.00 | 0.00 | 66 | 1006.0 |
| 20260901144637 | 84 | 0 | 0.0 | 0.0 | 0.00 | 0.00 | 0.00 | 66 | 1005.0 |
| 20260901143614 | 84 | 0 | 0.0 | 0.0 | 0.00 | 0.00 | 0.00 | 66 | 1005.0 |
| 20260901142552 | 84 | 0 | 0.0 | 0.0 | 0.00 | 0.00 | 0.00 | 66 | 1005.0 |
| 20260901141529 | 84 | 0 | 0.0 | 0.0 | 0.00 | 0.00 | 0.00 | 65 | 1005.0 |
| 20260901140507 | 84 | 0 | 0.0 | 0.0 | 0.00 | 0.00 | 0.00 | 65 | 1005.0 |
| 20260901135444 | 84 | 0 | 0.0 | 0.0 | 0.00 | 0.00 | 0.00 | 64 | 1004.0 |
| 20260901134421 | 84 | 0 | 0.0 | 0.0 | 0.00 | 0.00 | 0.00 | 64 | 1004.0 |
| 20260901133359 | 84 | 0 | 0.0 | 0.0 | 0.00 | 0.00 | 0.00 | 64 | 1004.0 |
| 20260901132336 | 84 | 0 | 0.0 | 0.0 | 0.00 | 0.00 | 0.00 | 63 | 1004.0 |
| 20260901131313 | 84 | 0 | 0.0 | 0.0 | 0.00 | 0.00 | 0.00 | 64 | 1004.0 |
| 20260901130251 | 84 | 0 | 0.0 | 0.0 | 0.00 | 0.00 | 0.00 | 63 | 1004.0 |
| 20260901125228 | 84 | 0 | 0.0 | 0.0 | 0.00 | 0.00 | 0.00 | 62 | 1004.0 |
| 20260901124205 | 83 | 0 | 0.0 | 0.0 | 0.00 | 0.00 | 0.00 | 62 | 1003.0 |